Powrót do katalogu

STARLINK-37766

AktywnyŁącznośćSSO
NORAD 69216·PAYLOAD·🇺🇸 United States

Wystrzelony May 26, 2026 z Vandenberg Space Force Base

Loading…

Następne Przeloty (najbliższe 24 godziny)

TLE

ŚwieżeSource: CelesTrak SupGP

Epoka: Sep 14, 2026, 15:47 UTC

1 69216C 26115F   26257.65812500 -.00049613  00000+0 -15397-2 0  2576
2 69216  97.2837 273.7985 0001600 117.0203 205.9232 15.33471746    19

Śledź STARLINK-37766 w czasie rzeczywistym z AllMySat

Download on the App Store